Location: *
(37.5724°S, 58.0067°E)
Time: 15:29:33
(UTC+00:00)

Lacrosse 5 - Pass Details

Date: 26 January 2021
Orbit: 715 x 724 km, 57.0° (Epoch: 03 March)

Event Time Altitude Azimuth Distance (km) Brightness Sun altitude
Rises 19:35:34 0° 272° (W) 3,144 5.3 -32.9°
Reaches altitude 10° 19:38:39 10° 253° (WSW) 2,230 4.7 -33.1°
Maximum altitude 19:42:12 18° 209° (SSW) 1,730 4.4 -33.2°
Drops below altitude 10° 19:45:47 10° 165° (SSE) 2,243 5.1 -33.3°
Sets 19:48:55 0° 146° (SE) 3,170 5.8 -33.4°
